|
|
Jupiter Great Red Spot
(
First … Last »
)
(Preview)
Transit of Jupiter's Great Red Spot (Jovian System II Longitude=161°) at 18:12.6 GMT, 7th March, 2011. The Great Red Spot (GRS) is a persistent anticyclonic storm, 22° south of Jupiter's equator, which has lasted for at least 181 years and possibly as long as 346 years or more [url=http://en.wikip...
|
Blobrana
|
1229
|
|
|
|
|
Jupiter's South Equatorial Belt
(Preview)
Title: Jupiter's South Equatorial Belt cycle in 2009-2011: II, The SEB Revival Author: John H. Rogers A Revival of the South Equatorial Belt (SEB) is an organised disturbance on a grand scale. It starts with a single vigorous outbreak from which energetic storms and disturbances spread around the...
|
Blobrana
|
0
|
|
|
|
|
Jupiter's Rings
(Preview)
Title: The Rings of Jupiter Author: Imke de Pater, D.P. Hamilton, M.R. Showalter, H.B. Throop, J.A. Burns A review of the jovian ring system Read more (2694kb, PDF)
|
Blobrana
|
0
|
|
|
|
|
S/2017 J 1
(Preview)
Orbital elements:
S/2017 J 1
Epoch 2017 Sept. 4.0 TT = JDT 2458000.5 MPC
M 161.32649 (2000.0) P Q
n 0.48965383 Peri. 79.73238 -0.31399774 -0.90701199
a 0.1569807 Node 326.77425 -0.93870913 +0.34086171
e 0.3968680 Incl. 149.19651 +0.14223425 +0.24727019
P 2.01 H 16.5 P/d 735.21
From 14 o...
|
Blobrana
|
0
|
|
|
|
|
S/2016 J 1
(Preview)
Orbital elements:
S/2016 J 1
Epoch 2017 Sept. 4.0 TT = JDT 2458000.5 MPC
M 25.52802 (2000.0) P Q
n 0.59619561 Peri. 328.15054 +0.71132205 -0.38156323
a 0.1376723 Node 293.75814 -0.42885867 -0.90098610
e 0.1404545 Incl. 139.83916 -0.55686729 +0.20647894
P 1.65 H 16.8 P/d 603.83
From 15 o...
|
Blobrana
|
0
|
|
|
|
|
Jupiter Great Cold Spot
(Preview)
Second 'Great Spot' found at Jupiter, cold and high up Another "Great Spot" has been found at Jupiter, this one cold and high up. Scientists reported Tuesday that the dark expanse is 24,000 kilometres across and 12,000 kilometres wide. It's in the upper atmosphere and much cooler than the hot surrou...
|
Blobrana
|
0
|
|
|
|
|
Himalia
(Preview)
Himalia is the largest irregular satellite of Jupiter, the sixth largest overall in size, and the fifth largest in mass. (Only the four Galilean moons of Jupiter have greater mass.) It was discovered by Charles Dillon Perrine at the Lick Observatory on 3 December 1904 and is named after the nymph Him...
|
Blobrana
|
1
|
|
|
|
|
Jovian atmosphere
(Preview)
Title: Nebular water depletion as the cause of Jupiter's low oxygen abundance Authors: Olivier Mousis, Jonathan I. Lunine, Nikku Madhusudhan, Torrence V. Johnson Motivated by recent spectroscopic observations suggesting that atmospheres of some extrasolar giant-planets are carbon-rich,...
|
Blobrana
|
6
|
|
|
|
|
Thelxinoe
(Preview)
Thelxinoe, also known as Jupiter XLII, is a natural satellite of Jupiter. It was discovered by a team of astronomers from the University of Hawaii led by Scott S. Sheppard in 2004 from pictures taken in 2003, and originally received the temporary designation S/2003 J 22. http://en.wikipedia.org/...
|
Blobrana
|
0
|
|
|
|
|
Mneme
(Preview)
Mneme, also known as Jupiter XL, is a retrograde irregular satellite of Jupiter. It was discovered by a team of astronomers from the University of Hawaii led by Scott S. Sheppard, et al. in 2003, and was provisionally designated S/2003 J 21. Read more
|
Blobrana
|
0
|
|
|
|
|
Pasiphae
(Preview)
Anniversary of Philibert Melotte's discovery of Jupiters moon Pasiphae in 1908.
|
Blobrana
|
1
|
|
|
|
|
Sinope
(Preview)
Sinope is a retrograde irregular satellite of Jupiter discovered by Seth Barnes Nicholson at Lick Observatory in 1914, and is named after Sinope of Greek mythology. Read more
|
Blobrana
|
0
|
|
|
|
|
Jupiter impact
(Preview)
fireball on Jupiter (NEB L1=335, L2=219, L3=257) at 11.35 UT. Information via Twitter/Chris Lintott
|
Blobrana
|
8
|
|
|
|
|
S/2000 J 11
(Preview)
Orbital elements:
S/2000 J 11
Epoch 2012 Sept. 30.0 TT = JDT 2456200.5 MPC
M 189.30330 (2000.0) P Q
n 1.31195066 Peri. 217.01970 -0.61409379 -0.63378819
a 0.0813756 Node 276.24112 +0.78860741 -0.46902933
e 0.2108600 Incl. 28.23731 +0.03141929 -0.61508049
P 0.75 H 16.1 P/d 274.40
From 3...
|
Blobrana
|
0
|
|
|
|
|
Jovian magnetosphere
(Preview)
Title: The large-scale energetic ion layer in the high latitude Jovian magnetosphere as revealed by Ulysses/HI-SCALE cross-field intensity-gradient measurements Authors: G.C. Anagnostopoulos, I. Karanikola, P.K. Marhavilas, E.T. Sarris Ulysses investigated the high latitude Jovian ma...
|
Blobrana
|
0
|
|
|